QPF
0.00 0.00 0.00 0.00 0.00 0.00 0.00 0.00 0.00 0.00 0.00 0.00 0.00 0.00 0.00 0.00 0.00 0.00 0.07 0.18 0.84 0.35 0.41 0.11 0.00 0.00 0.00 0.00 0.00 0.00 0.00 0.00 0.00 0.00 0.00 0.00 0.00 0.00 0.00 0.00 0.00 0.00 0.00 0.00 0.00 0.00 0.00 0.00 0.00
0.00 0.00 0.00 0.00 0.00 0.00 0.00 0.00 0.00 0.00 0.00 0.00 0.00 0.00 0.00 0.00 0.00 0.00 0.00 0.11 1.18 1.13 0.77 0.35 0.04 0.02 0.01 0.00 0.00 0.00 0.00 0.00 0.00 0.00 0.00 0.00 0.00 0.00 0.00 0.00 0.00 0.00 0.00 0.00 0.00 0.00 0.00 0.00 0.00
0.00 0.00 0.00 0.00 0.00 0.00 0.00 0.00 0.00 0.00 0.00 0.00 0.00 0.00 0.00 0.00 0.00 0.00 0.00 0.07 0.57 0.64 0.79 0.64 0.25 0.13 0.05 0.01 0.00 0.00 0.00 0.00 0.00 0.00 0.00 0.00 0.00 0.00 0.00 0.00 0.00 0.00 0.00 0.00 0.00 0.00 0.00 0.00 0.00
0.00 0.00 0.00 0.00 0.00 0.00 0.00 0.00 0.00 0.00 0.00 0.00 0.01 0.00 0.03 0.06 0.02 0.01 0.00 0.01 0.38 0.41 0.53 0.85 0.34 0.17 0.05 0.01 0.00 0.00 0.00 0.00 0.00 0.00 0.00 0.00 0.00 0.00 0.00 0.00 0.00 0.00 0.00 0.00 0.00 0.00 0.00 0.00 0.00
0.00 0.00 0.00 0.00 0.00 0.00 0.00 0.00 0.00 0.00 0.00 0.00 0.00 0.02 0.10 0.17 0.10 0.04 0.10 0.08 0.21 0.21 0.29 0.60 0.25 0.02 0.01 0.00 0.00 0.00 0.00 0.00 0.00 0.00 0.00 0.00 0.00 0.00 0.00 0.00 0.00 0.00 0.00 0.00 0.00 0.00 0.00 0.00 0.00
0.00 0.00 0.00 0.00 0.00 0.00 0.00 0.00 0.00 0.00 0.01 0.04 0.04 0.05 0.10 0.14 0.03 0.00 0.01 0.15 0.47 0.56 0.61 0.75 0.23 0.05 0.12 0.03 0.00 0.00 0.00 0.00 0.00 0.00 0.00 0.00 0.00 0.00 0.00 0.00 0.00 0.00 0.00 0.00 0.00 0.00 0.00 0.00 0.00
0.00 0.00 0.00 0.00 0.00 0.00 0.00 0.00 0.00 0.01 0.03 0.06 0.07 0.02 0.00 0.06 0.05 0.00 0.01 0.13 0.53 1.10 1.79 1.09 0.51 0.36 0.21 0.07 0.01 0.00 0.00 0.00 0.00 0.00 0.00 0.00 0.00 0.00 0.00 0.00 0.00 0.00 0.00 0.00 0.00 0.00 0.00 0.00 0.00
0.00 0.00 0.00 0.00 0.00 0.00 0.00 0.00 0.00 0.01 0.00 0.07 0.12 0.09 0.03 0.13 0.14 0.03 0.02 0.13 0.28 1.06 2.58 2.70 1.56 0.40 0.15 0.07 0.01 0.00 0.00 0.00 0.00 0.00 0.00 0.00 0.00 0.00 0.00 0.00 0.00 0.00 0.00 0.00 0.00 0.00 0.00 0.00 0.00
0.00 0.00 0.00 0.00 0.00 0.00 0.00 0.00 0.00 0.00 0.01 0.07 0.13 0.15 0.22 0.25 0.09 0.04 0.01 0.02 0.08 0.20 0.69 1.82 2.52 1.38 0.20 0.08 0.02 0.00 0.00 0.00 0.00 0.00 0.00 0.00 0.00 0.00 0.00 0.00 0.00 0.00 0.00 0.00 0.00 0.00 0.00 0.00 0.00
0.00 0.00 0.00 0.00 0.00 0.00 0.00 0.00 0.00 0.00 0.01 0.03 0.06 0.12 0.43 0.29 0.07 0.03 0.03 0.03 0.03 0.06 0.10 0.45 0.84 1.45 0.51 0.06 0.00 0.00 0.00 0.00 0.00 0.00 0.00 0.00 0.00 0.00 0.00 0.00 0.00 0.00 0.00 0.00 0.00 0.00 0.00 0.00 0.00
0.00 0.00 0.00 0.00 0.00 0.00 0.00 0.00 0.00 0.00 0.02 0.04 0.03 0.05 0.12 0.12 0.01 0.00 0.01 0.01 0.01 0.03 0.04 0.05 0.08 0.18 0.19 0.05 0.02 0.00 0.00 0.00 0.00 0.00 0.00 0.00 0.00 0.00 0.00 0.00 0.00 0.00 0.00 0.00 0.00 0.00 0.00 0.00 0.00
0.00 0.00 0.00 0.00 0.00 0.00 0.00 0.00 0.00 0.01 0.03 0.01 0.06 0.06 0.06 0.05 0.02 0.00 0.01 0.01 0.01 0.01 0.01 0.01 0.00 0.01 0.00 0.00 0.00 0.01 0.01 0.00 0.01 0.00 0.00 0.00 0.00 0.00 0.00 0.00 0.00 0.00 0.00 0.00 0.00 0.00 0.00 0.00 0.00
0.00 0.00 0.00 0.00 0.00 0.00 0.00 0.00 0.00 0.00 0.04 0.00 0.00 0.00 0.01 0.01 0.04 0.02 0.02 0.03 0.07 0.07 0.02 0.01 0.03 0.05 0.01 0.02 0.01 0.00 0.01 0.00 0.00 0.00 0.02 0.00 0.00 0.00 0.00 0.00 0.00 0.00 0.00 0.00 0.00 0.00 0.00 0.00 0.00
0.00 0.00 0.00 0.00 0.00 0.00 0.00 0.00 0.00 0.00 0.01 0.02 0.00 0.00 0.00 0.01 0.01 0.02 0.01 0.02 0.07 0.05 0.01 0.01 0.05 0.09 0.08 0.05 0.02 0.01 0.00 0.00 0.01 0.02 0.04 0.02 0.00 0.00 0.00 0.00 0.00 0.00 0.00 0.00 0.00 0.00 0.00 0.00 0.00
0.00 0.00 0.00 0.00 0.00 0.00 0.00 0.00 0.00 0.00 0.01 0.03 0.00 0.00 0.00 0.01 0.00 0.01 0.01 0.00 0.01 0.05 0.06 0.03 0.02 0.02 0.03 0.05 0.03 0.02 0.01 0.00 0.01 0.03 0.04 0.03 0.01 0.00 0.01 0.03 0.00 0.00 0.00 0.00 0.00 0.00 0.00 0.00 0.00
0.00 0.00 0.00 0.00 0.00 0.00 0.00 0.00 0.00 0.00 0.01 0.01 0.00 0.00 0.00 0.01 0.02 0.01 0.02 0.00 0.01 0.01 0.04 0.04 0.03 0.04 0.04 0.03 0.02 0.01 0.02 0.03 0.02 0.02 0.03 0.03 0.02 0.05 0.07 0.05 0.01 0.00 0.00 0.00 0.00 0.00 0.00 0.00 0.00
0.00 0.00 0.00 0.00 0.00 0.00 0.00 0.00 0.00 0.03 0.00 0.01 0.00 0.00 0.00 0.00 0.02 0.07 0.02 0.01 0.01 0.01 0.00 0.01 0.01 0.02 0.04 0.04 0.03 0.02 0.01 0.01 0.00 0.00 0.00 0.01 0.07 0.06 0.02 0.02 0.01 0.01 0.00 0.00 0.00 0.00 0.00 0.00 0.00
0.00 0.00 0.00 0.00 0.00 0.00 0.00 0.00 0.00 0.01 0.00 0.00 0.00 0.00 0.00 0.00 0.01 0.01 0.00 0.00 0.00 0.00 0.00 0.00 0.00 0.00 0.00 0.00 0.00 0.00 0.00 0.00 0.00 0.01 0.01 0.03 0.11 0.16 0.09 0.07 0.03 0.01 0.00 0.00 0.00 0.00 0.00 0.00 0.00
0.00 0.00 0.00 0.00 0.00 0.00 0.00 0.00 0.00 0.00 0.00 0.00 0.00 0.00 0.00 0.00 0.00 0.00 0.00 0.00 0.00 0.00 0.00 0.00 0.00 0.00 0.00 0.00 0.00 0.00 0.00 0.01 0.00 0.00 0.01 0.03 0.08 0.09 0.10 0.03 0.03 0.00 0.00 0.00 0.00 0.00 0.00 0.00 0.00
0.00 0.00 0.00 0.00 0.00 0.00 0.00 0.00 0.00 0.00 0.00 0.00 0.00 0.00 0.00 0.00 0.00 0.00 0.00 0.00 0.00 0.00 0.00 0.00 0.00 0.00 0.00 0.00 0.00 0.00 0.00 0.00 0.00 0.00 0.02 0.05 0.10 0.10 0.05 0.00 0.01 0.00 0.00 0.00 0.00 0.00 0.00 0.00 0.00
0.00 0.00 0.00 0.00 0.00 0.00 0.00 0.00 0.00 0.00 0.01 0.00 0.00 0.00 0.00 0.00 0.00 0.00 0.00 0.00 0.00 0.00 0.00 0.00 0.00 0.00 0.00 0.00 0.00 0.00 0.00 0.00 0.02 0.02 0.06 0.06 0.14 0.20 0.17 0.02 0.00 0.00 0.00 0.00 0.00 0.00 0.00 0.00 0.00
0.00 0.00 0.00 0.00 0.00 0.00 0.00 0.00 0.00 0.00 0.00 0.00 0.00 0.01 0.00 0.00 0.00 0.00 0.00 0.00 0.00 0.00 0.00 0.00 0.00 0.00 0.00 0.00 0.00 0.00 0.00 0.00 0.00 0.00 0.00 0.03 0.04 0.02 0.02 0.00 0.00 0.00 0.00 0.00 0.00 0.00 0.00 0.00 0.00
0.00 0.00 0.00 0.00 0.00 0.00 0.00 0.00 0.00 0.00 0.00 0.00 0.00 0.00 0.00 0.00 0.00 0.00 0.00 0.00 0.00 0.00 0.00 0.00 0.00 0.00 0.00 0.00 0.00 0.00 0.00 0.00 0.00 0.00 0.00 0.00 0.02 0.01 0.00 0.01 0.00 0.00 0.00 0.00 0.00 0.00 0.00 0.00 0.00
0.00 0.00 0.00 0.00 0.00 0.00 0.00 0.00 0.00 0.00 0.00 0.00 0.00 0.00 0.00 0.01 0.00 0.00 0.00 0.00 0.00 0.00 0.00 0.00 0.00 0.00 0.00 0.00 0.00 0.00 0.00 0.00 0.00 0.00 0.00 0.00 0.00 0.00 0.01 0.01 0.00 0.00 0.00 0.00 0.00 0.00 0.00 0.00 0.00
0.00 0.00 0.00 0.00 0.00 0.00 0.00 0.01 0.00 0.00 0.00 0.00 0.00 0.00 0.00 0.00 0.00 0.01 0.00 0.00 0.00 0.00 0.00 0.00 0.00 0.00 0.00 0.00 0.00 0.00 0.00 0.00 0.00 0.00 0.00 0.01 0.00 0.00 0.01 0.00 0.00 0.00 0.00 0.00 0.00 0.00 0.00 0.00 0.00
0.00 0.00 0.00 0.00 0.01 0.03 0.03 0.00 0.00 0.00 0.00 0.00 0.00 0.00 0.00 0.00 0.00 0.01 0.01 0.01 0.00 0.00 0.00 0.00 0.00 0.00 0.00 0.00 0.00 0.00 0.01 0.00 0.00 0.01 0.08 0.03 0.01 0.00 0.00 0.00 0.00 0.00 0.00 0.00 0.00 0.00 0.00 0.00 0.00
0.00 0.00 0.00 0.00 0.01 0.01 0.00 0.00 0.00 0.00 0.00 0.00 0.00 0.00 0.00 0.00 0.00 0.00 0.01 0.01 0.01 0.00 0.00 0.00 0.00 0.00 0.00 0.00 0.00 0.00 0.02 0.02 0.03 0.16 0.10 0.11 0.01 0.01 0.00 0.00 0.00 0.00 0.00 0.01 0.03 0.06 0.04 0.01 0.00
0.00 0.00 0.00 0.00 0.00 0.01 0.00 0.00 0.00 0.00 0.00 0.00 0.00 0.00 0.00 0.00 0.00 0.00 0.01 0.01 0.03 0.05 0.01 0.01 0.02 0.00 0.00 0.00 0.00 0.00 0.05 0.02 0.07 0.18 0.04 0.08 0.04 0.04 0.05 0.02 0.00 0.01 0.03 0.12 0.23 0.21 0.10 0.05 0.05
0.00 0.00 0.00 0.00 0.00 0.00 0.00 0.00 0.00 0.00 0.00 0.00 0.00 0.00 0.00 0.00 0.00 0.00 0.00 0.00 0.03 0.06 0.02 0.02 0.05 0.03 0.01 0.01 0.00 0.00 0.06 0.05 0.03 0.07 0.12 0.06 0.14 0.13 0.08 0.03 0.06 0.25 0.41 0.33 0.20 0.14 0.12 0.09 0.05
0.00 0.00 0.00 0.00 0.00 0.00 0.00 0.00 0.00 0.00 0.00 0.00 0.00 0.00 0.00 0.00 0.00 0.00 0.00 0.00 0.01 0.05 0.04 0.01 0.04 0.04 0.02 0.05 0.07 0.00 0.03 0.13 0.10 0.10 0.11 0.13 0.06 0.01 0.02 0.01 0.04 0.05 0.03 0.04 0.05 0.06 0.05 0.03 0.02
MSLP
1011.27 1011.49 1012.06 1012.14 1013.30 1013.13 1012.27 1010.82 1009.25 1008.30 1007.10 1006.70 1005.64 1006.18 1006.89 1008.01 1008.61 1010.37 1010.81 1011.19 1009.72 1011.48 1012.95 1012.80 1012.37 1012.14 1012.67 1012.94 1013.19 1013.74 1014.17 1014.67 1015.00 1014.83 1015.23 1015.68 1016.26 1016.43 1016.98 1017.41 1017.76 1018.20 1018.44 1018.96 1019.29 1019.50 1019.86 1020.11 1020.47
1011.15 1011.42 1012.07 1012.38 1012.99 1012.97 1011.50 1009.34 1008.78 1009.20 1009.56 1007.58 1007.00 1007.48 1007.55 1008.96 1009.67 1010.46 1011.33 1010.19 1009.11 1008.27 1009.74 1011.17 1012.92 1013.25 1013.81 1013.61 1013.56 1014.34 1014.84 1015.35 1015.85 1015.56 1016.12 1016.19 1016.43 1016.78 1017.17 1017.64 1018.17 1018.63 1018.89 1019.42 1019.60 1019.85 1020.19 1020.55 1020.97
1011.40 1011.44 1012.25 1012.41 1012.30 1012.18 1011.02 1009.99 1009.25 1009.23 1009.02 1009.15 1009.25 1009.70 1009.82 1010.91 1010.80 1010.79 1010.41 1009.68 1008.92 1008.22 1007.83 1011.64 1012.89 1013.18 1013.92 1013.87 1013.67 1014.14 1014.89 1015.36 1015.88 1016.27 1016.59 1016.64 1016.91 1017.21 1017.54 1018.04 1018.52 1018.92 1019.27 1019.76 1019.92 1020.22 1020.56 1020.80 1021.18
1011.49 1011.58 1011.88 1011.85 1011.67 1010.12 1010.43 1009.18 1009.21 1008.91 1009.23 1009.79 1010.19 1010.60 1011.15 1010.84 1010.12 1011.44 1011.94 1009.89 1009.43 1007.98 1007.32 1011.50 1012.91 1012.64 1013.55 1013.66 1013.79 1014.21 1014.44 1015.26 1015.80 1015.97 1016.78 1016.96 1017.40 1017.56 1018.00 1018.41 1018.83 1019.29 1019.75 1020.26 1020.42 1020.58 1020.75 1020.98 1021.24
1011.73 1012.00 1012.22 1011.97 1010.84 1009.43 1009.21 1008.48 1008.47 1009.15 1009.89 1010.36 1010.37 1010.67 1010.12 1009.57 1008.65 1010.17 1011.53 1010.78 1009.58 1009.07 1008.81 1007.44 1010.55 1011.83 1013.02 1013.46 1014.07 1014.59 1015.00 1015.47 1015.81 1016.19 1016.68 1017.13 1017.59 1017.90 1018.15 1018.72 1019.14 1019.72 1020.12 1020.56 1020.77 1020.95 1021.12 1021.30 1021.61
1011.99 1011.81 1012.37 1011.89 1010.18 1009.00 1008.26 1007.99 1008.13 1008.73 1010.00 1009.70 1010.56 1011.14 1010.12 1009.05 1009.77 1011.18 1010.28 1010.39 1010.99 1011.87 1010.91 1008.51 1009.84 1011.40 1012.34 1013.37 1014.01 1014.56 1015.11 1015.82 1016.18 1016.55 1017.06 1017.48 1017.68 1018.21 1018.51 1018.93 1019.46 1020.09 1020.58 1020.76 1021.09 1021.40 1021.44 1021.56 1021.80
1011.41 1011.97 1011.90 1010.89 1009.64 1008.51 1007.83 1007.48 1007.77 1008.66 1009.63 1010.41 1011.32 1011.57 1011.01 1010.74 1011.09 1011.48 1010.27 1010.30 1011.10 1010.09 1009.76 1011.75 1010.80 1010.87 1012.13 1013.23 1014.03 1014.61 1015.36 1016.06 1016.36 1016.70 1017.40 1017.95 1018.30 1018.59 1018.94 1019.48 1019.98 1020.41 1020.72 1021.05 1021.34 1021.75 1021.89 1021.95 1022.10
1010.65 1011.40 1011.25 1010.11 1009.14 1008.10 1007.21 1006.99 1007.03 1007.76 1009.77 1010.45 1010.48 1011.83 1012.02 1012.52 1011.68 1011.16 1011.57 1011.29 1010.68 1010.28 1011.59 1011.28 1009.46 1011.17 1012.52 1013.48 1014.24 1014.92 1015.50 1016.17 1016.65 1017.09 1017.79 1018.43 1018.69 1019.04 1019.41 1019.91 1020.29 1020.55 1021.00 1021.32 1021.54 1021.85 1022.21 1022.34 1022.34
1009.57 1010.72 1010.48 1009.36 1008.30 1007.83 1006.91 1007.08 1007.03 1008.11 1009.09 1010.60 1010.98 1010.99 1011.58 1012.88 1012.00 1011.73 1012.07 1012.09 1012.04 1011.14 1010.26 1012.07 1011.09 1010.11 1012.28 1013.67 1014.73 1015.39 1015.77 1016.45 1017.05 1017.56 1018.17 1018.75 1019.26 1019.53 1019.93 1020.23 1020.55 1020.97 1021.24 1021.60 1021.64 1022.20 1022.30 1022.53 1022.70
1009.87 1009.90 1009.13 1008.10 1007.28 1006.92 1006.72 1006.93 1007.17 1008.04 1009.72 1010.48 1010.76 1010.19 1010.15 1011.30 1011.94 1011.93 1011.91 1012.06 1011.93 1010.99 1010.54 1012.79 1012.95 1012.60 1013.05 1014.03 1014.91 1015.68 1015.97 1016.98 1017.63 1018.01 1018.55 1018.90 1019.30 1019.86 1020.11 1020.50 1020.92 1021.32 1021.67 1021.68 1022.40 1022.27 1022.70 1022.89 1023.24
1008.79 1008.72 1007.76 1007.23 1006.64 1006.38 1006.63 1007.08 1008.18 1008.35 1009.47 1010.09 1010.47 1009.99 1010.18 1010.74 1011.52 1011.78 1012.19 1012.51 1012.12 1011.94 1012.29 1012.71 1013.27 1013.84 1013.91 1015.11 1015.33 1015.79 1015.95 1017.08 1017.82 1018.02 1018.93 1019.17 1020.01 1020.50 1020.67 1020.60 1021.45 1021.80 1021.93 1022.36 1022.66 1022.77 1023.15 1023.17 1023.68
1008.39 1007.54 1007.09 1006.62 1006.20 1006.17 1006.50 1007.01 1008.63 1008.79 1010.14 1009.48 1009.98 1010.37 1010.85 1011.03 1011.46 1011.59 1012.23 1012.47 1012.37 1012.85 1013.46 1013.83 1014.45 1015.18 1015.78 1015.77 1016.00 1015.82 1016.12 1016.66 1017.92 1018.31 1019.00 1019.72 1020.16 1021.07 1020.71 1021.01 1021.68 1021.88 1022.23 1022.67 1023.03 1023.12 1023.36 1023.55 1023.90
1007.66 1007.21 1006.54 1006.48 1006.60 1006.54 1006.87 1008.05 1008.31 1009.27 1009.39 1009.69 1009.71 1010.64 1011.32 1011.61 1011.86 1012.07 1012.46 1013.06 1013.24 1013.26 1013.69 1014.43 1015.04 1015.58 1015.91 1015.46 1015.96 1016.47 1016.87 1016.43 1017.85 1018.70 1019.23 1019.76 1020.08 1021.08 1020.58 1021.35 1021.70 1022.08 1022.31 1022.81 1023.01 1023.01 1023.47 1023.89 1024.13
1007.48 1006.99 1006.62 1006.39 1006.50 1006.41 1007.19 1007.62 1008.21 1008.88 1009.29 1009.45 1010.25 1011.40 1011.82 1012.19 1012.42 1012.55 1012.99 1013.40 1013.55 1013.58 1013.94 1014.79 1015.38 1015.57 1015.58 1016.12 1016.54 1017.03 1017.55 1017.95 1018.05 1018.72 1019.21 1019.16 1020.46 1020.51 1020.84 1021.17 1021.64 1021.96 1022.53 1022.74 1022.65 1023.16 1023.60 1024.13 1024.35
1007.61 1007.56 1006.96 1006.48 1006.31 1006.68 1007.23 1008.19 1008.83 1009.09 1008.96 1009.50 1010.90 1011.62 1012.36 1012.65 1012.87 1013.18 1013.16 1013.40 1013.40 1013.97 1014.35 1014.68 1015.21 1015.69 1016.31 1016.64 1017.07 1017.44 1017.70 1018.26 1018.51 1018.78 1019.04 1019.70 1020.23 1020.17 1020.54 1021.20 1021.44 1021.76 1022.13 1022.43 1022.80 1023.34 1023.73 1024.34 1024.43
1008.09 1007.88 1007.46 1006.55 1006.56 1006.49 1007.14 1007.51 1008.23 1009.31 1009.20 1010.11 1010.99 1011.94 1012.69 1013.24 1013.37 1013.48 1013.68 1013.92 1014.25 1014.67 1014.83 1015.24 1015.78 1016.41 1016.87 1017.27 1017.42 1017.90 1018.65 1018.38 1018.77 1018.73 1019.81 1019.86 1019.73 1020.26 1020.84 1021.19 1021.52 1021.82 1022.18 1022.57 1023.04 1023.51 1024.01 1024.41 1024.65
1008.10 1008.21 1007.58 1006.94 1006.47 1006.57 1007.02 1007.54 1007.69 1007.98 1008.21 1010.20 1011.33 1012.30 1013.15 1013.70 1013.95 1014.02 1013.97 1014.10 1014.24 1014.62 1015.22 1015.85 1016.17 1016.56 1017.03 1017.33 1018.16 1018.22 1018.28 1018.55 1019.10 1019.55 1019.60 1019.41 1019.77 1020.23 1020.75 1021.20 1021.59 1021.85 1022.23 1022.49 1022.77 1023.43 1023.84 1024.33 1024.70
1007.76 1007.44 1006.88 1006.39 1006.07 1006.60 1006.60 1007.21 1007.40 1007.36 1008.06 1010.15 1011.54 1012.21 1012.77 1013.29 1014.19 1014.54 1014.65 1014.74 1014.73 1014.98 1015.25 1015.68 1016.21 1016.74 1017.28 1017.86 1018.48 1018.45 1018.95 1018.88 1018.99 1019.33 1018.79 1018.58 1019.58 1020.00 1020.65 1021.07 1021.37 1021.77 1022.04 1022.51 1022.85 1023.42 1023.85 1024.02 1024.46
1007.06 1006.83 1006.49 1005.73 1005.57 1005.93 1005.90 1006.55 1007.23 1007.06 1008.25 1009.99 1011.45 1012.03 1012.86 1013.09 1013.98 1014.53 1015.08 1015.11 1015.05 1015.65 1015.58 1015.74 1016.41 1016.90 1017.51 1018.06 1018.63 1018.61 1018.52 1018.55 1018.45 1018.28 1018.70 1019.12 1019.45 1019.91 1020.46 1020.74 1021.35 1021.47 1021.93 1022.32 1022.87 1023.40 1023.84 1024.32 1024.41
1006.13 1005.83 1005.47 1004.99 1004.87 1005.26 1005.32 1005.49 1005.35 1006.49 1007.19 1008.54 1009.98 1011.20 1012.23 1012.99 1013.65 1014.42 1014.59 1014.81 1015.11 1015.24 1015.78 1016.19 1016.48 1016.96 1017.33 1017.67 1017.97 1018.09 1017.98 1018.06 1018.43 1018.66 1018.92 1019.05 1019.51 1019.75 1020.13 1020.39 1020.83 1021.00 1021.69 1022.30 1022.85 1023.07 1023.87 1024.26 1024.34
1005.02 1005.11 1005.15 1005.12 1004.63 1004.58 1004.97 1005.25 1005.52 1005.43 1006.81 1008.16 1008.72 1009.61 1010.93 1011.56 1012.45 1013.26 1013.73 1014.28 1014.59 1014.90 1014.98 1015.26 1015.60 1016.26 1016.79 1016.91 1017.71 1017.80 1017.91 1017.89 1018.20 1018.40 1018.75 1018.68 1018.97 1019.30 1019.46 1019.85 1020.16 1020.54 1021.13 1021.82 1022.26 1022.80 1023.50 1024.17 1024.45
1004.45 1004.53 1004.74 1005.01 1005.22 1005.71 1005.44 1005.62 1005.09 1005.16 1005.97 1006.93 1007.86 1008.69 1009.55 1010.53 1011.56 1012.20 1012.48 1013.19 1013.53 1013.90 1014.33 1014.57 1015.04 1015.50 1015.70 1016.24 1016.64 1016.95 1016.82 1017.13 1017.54 1017.85 1018.10 1018.36 1018.52 1018.83 1019.17 1019.29 1019.52 1019.77 1020.60 1021.14 1021.57 1022.14 1023.10 1023.63 1024.31
1003.91 1004.25 1004.82 1005.14 1005.88 1006.13 1005.97 1006.14 1004.75 1003.85 1005.05 1005.59 1006.27 1007.19 1007.91 1008.62 1009.46 1010.47 1011.30 1011.92 1012.36 1013.20 1013.68 1013.94 1014.36 1014.64 1014.92 1015.30 1015.57 1015.90 1016.11 1016.41 1016.77 1017.35 1017.72 1018.08 1018.41 1018.47 1018.75 1019.04 1019.27 1019.70 1020.26 1020.74 1021.18 1021.72 1022.43 1023.11 1023.93
1003.45 1004.30 1005.10 1005.65 1006.61 1007.03 1006.41 1006.22 1004.88 1004.05 1003.35 1003.72 1004.40 1005.45 1006.34 1007.29 1008.07 1008.85 1009.67 1010.81 1011.64 1012.39 1012.85 1013.12 1013.43 1013.62 1013.98 1014.24 1014.54 1014.99 1015.22 1015.68 1016.26 1016.91 1017.35 1017.85 1018.15 1018.48 1018.67 1018.91 1019.04 1019.53 1019.86 1020.37 1020.63 1021.34 1021.97 1022.73 1023.37
1003.30 1004.56 1006.28 1007.22 1007.84 1007.85 1007.19 1006.17 1004.20 1002.40 1002.06 1002.01 1002.68 1003.81 1004.83 1005.65 1006.80 1007.81 1008.66 1009.23 1010.07 1010.76 1011.30 1011.66 1011.99 1012.21 1012.57 1013.01 1013.20 1013.68 1014.12 1014.57 1015.28 1016.02 1016.64 1017.34 1017.82 1018.11 1018.22 1018.46 1018.79 1019.16 1019.29 1019.84 1020.33 1021.18 1021.61 1022.26 1023.02
1003.08 1004.40 1006.28 1007.53 1008.57 1008.80 1007.50 1006.01 1003.48 1001.73 1001.21 1001.35 1001.83 1002.31 1003.43 1004.74 1005.59 1006.40 1007.02 1007.57 1008.42 1009.15 1009.93 1010.64 1011.04 1011.48 1011.71 1012.08 1012.50 1012.95 1013.51 1013.80 1014.35 1014.88 1015.64 1016.41 1016.85 1017.23 1017.58 1017.98 1018.43 1018.82 1019.22 1019.66 1020.39 1020.72 1021.61 1021.78 1022.71
1002.58 1003.53 1004.71 1006.76 1008.24 1008.84 1007.88 1005.34 1003.60 1002.11 1001.79 1001.11 1001.14 1001.59 1002.62 1003.48 1004.32 1004.97 1005.68 1006.40 1007.09 1007.63 1008.25 1008.74 1009.60 1010.36 1010.84 1011.18 1011.69 1012.04 1012.40 1013.27 1013.80 1014.25 1014.99 1015.84 1016.19 1016.69 1017.13 1017.46 1018.33 1018.93 1019.37 1020.07 1020.38 1021.41 1022.57 1022.46 1022.90
1001.71 1003.13 1004.44 1005.84 1007.70 1008.60 1006.92 1005.78 1003.91 1002.90 1002.12 1001.40 1001.35 1001.47 1001.83 1002.54 1003.44 1004.20 1004.68 1005.14 1005.70 1006.21 1006.61 1007.52 1008.32 1008.78 1009.20 1010.00 1010.68 1011.37 1011.83 1012.30 1012.95 1013.48 1014.30 1014.96 1015.45 1016.05 1016.63 1017.39 1018.16 1019.27 1020.21 1020.74 1021.87 1022.01 1022.67 1023.03 1023.28
1001.50 1002.55 1003.64 1005.27 1006.44 1007.02 1006.83 1005.20 1003.17 1002.57 1001.85 1001.37 1001.20 1001.11 1001.39 1001.62 1001.99 1002.65 1003.44 1004.02 1004.77 1005.15 1005.76 1006.45 1007.40 1008.01 1008.92 1009.51 1009.77 1010.32 1010.86 1011.49 1012.22 1012.74 1013.68 1014.43 1015.12 1015.91 1016.68 1017.47 1018.20 1018.93 1019.59 1020.16 1021.08 1021.72 1022.13 1022.36 1022.83
1000.29 1001.41 1002.90 1004.40 1005.55 1005.80 1005.83 1004.92 1002.96 1002.32 1001.58 1000.97 1001.01 1000.80 1000.85 1001.13 1001.47 1001.61 1001.88 1002.79 1003.76 1004.34 1004.89 1005.57 1006.57 1007.42 1008.08 1008.69 1009.11 1009.60 1009.95 1010.98 1011.48 1012.12 1013.25 1014.09 1014.93 1015.72 1016.45 1017.15 1017.81 1018.42 1019.14 1019.92 1020.61 1021.00 1021.48 1021.93 1022.27
Thickness
5715 5710 5701 5688 5648 5641 5639 5659 5690 5692 5708 5714 5726 5721 5708 5699 5705 5685 5705 5704 5715 5705 5693 5690 5703 5714 5716 5715 5714 5710 5709 5708 5706 5710 5707 5705 5700 5700 5694 5690 5687 5682 5681 5677 5674 5674 5671 5670 5667
5712 5705 5689 5668 5637 5624 5647 5685 5690 5680 5672 5702 5712 5708 5706 5688 5695 5692 5693 5710 5719 5729 5710 5681 5688 5693 5695 5702 5705 5699 5696 5694 5692 5697 5694 5695 5694 5691 5689 5685 5680 5676 5674 5670 5669 5668 5666 5664 5661
5704 5699 5669 5651 5638 5631 5640 5678 5683 5683 5686 5684 5683 5686 5685 5673 5686 5685 5696 5713 5718 5723 5728 5695 5681 5687 5687 5694 5700 5698 5693 5691 5688 5685 5683 5686 5684 5682 5681 5676 5673 5670 5668 5664 5663 5662 5660 5660 5657
5693 5682 5670 5646 5642 5665 5668 5684 5680 5688 5687 5682 5679 5673 5671 5678 5686 5674 5671 5699 5702 5714 5723 5675 5676 5685 5684 5691 5694 5694 5695 5689 5686 5686 5678 5679 5676 5675 5671 5669 5666 5663 5660 5656 5656 5656 5657 5655 5653
5685 5668 5643 5641 5652 5677 5685 5691 5682 5676 5677 5671 5674 5660 5668 5681 5692 5683 5665 5676 5686 5701 5698 5680 5686 5686 5682 5685 5683 5683 5684 5684 5684 5682 5680 5676 5672 5670 5668 5662 5660 5656 5654 5651 5650 5650 5650 5650 5647
5663 5665 5634 5633 5656 5683 5690 5691 5689 5683 5672 5677 5667 5641 5661 5679 5675 5668 5674 5674 5668 5660 5668 5683 5684 5683 5682 5680 5680 5680 5680 5676 5676 5674 5673 5669 5668 5663 5661 5658 5654 5650 5647 5647 5645 5643 5644 5644 5642
5664 5647 5635 5645 5662 5677 5688 5695 5689 5678 5669 5666 5655 5640 5656 5659 5664 5658 5672 5673 5663 5661 5667 5668 5680 5683 5678 5675 5675 5676 5674 5670 5668 5667 5663 5659 5659 5658 5655 5650 5647 5644 5642 5639 5638 5637 5637 5636 5637
5676 5655 5643 5656 5660 5670 5691 5694 5695 5683 5661 5663 5662 5646 5637 5639 5650 5659 5660 5659 5664 5666 5653 5662 5665 5670 5668 5667 5668 5668 5666 5663 5662 5660 5656 5652 5653 5652 5647 5643 5640 5638 5635 5632 5631 5632 5628 5630 5632
5690 5645 5642 5656 5669 5675 5691 5684 5697 5678 5668 5656 5650 5650 5648 5637 5645 5651 5652 5651 5651 5661 5669 5655 5653 5653 5653 5658 5660 5658 5657 5655 5654 5653 5650 5647 5644 5643 5640 5636 5634 5630 5628 5625 5627 5625 5627 5626 5626
5667 5644 5656 5681 5691 5685 5691 5688 5688 5676 5661 5653 5649 5657 5655 5641 5642 5648 5651 5650 5654 5663 5669 5636 5642 5653 5649 5650 5653 5651 5652 5647 5645 5644 5641 5641 5637 5633 5631 5629 5626 5622 5619 5620 5617 5622 5622 5620 5620
5672 5657 5682 5687 5696 5696 5689 5685 5677 5675 5663 5656 5656 5661 5662 5655 5649 5651 5649 5648 5656 5655 5650 5649 5648 5641 5645 5642 5647 5648 5649 5641 5638 5637 5632 5631 5623 5621 5622 5624 5616 5613 5612 5611 5612 5615 5615 5616 5613
5666 5684 5687 5692 5698 5695 5687 5687 5666 5666 5662 5671 5665 5658 5654 5653 5650 5653 5649 5650 5654 5651 5641 5640 5632 5631 5629 5634 5639 5643 5641 5639 5630 5629 5625 5621 5619 5611 5616 5615 5609 5606 5605 5607 5607 5609 5609 5609 5607
5674 5681 5694 5692 5686 5688 5688 5665 5671 5663 5671 5669 5668 5657 5647 5645 5645 5646 5646 5642 5647 5649 5646 5636 5634 5632 5628 5635 5635 5634 5630 5635 5626 5621 5618 5615 5613 5605 5611 5606 5603 5601 5600 5602 5605 5607 5605 5603 5602
5681 5682 5685 5688 5685 5688 5678 5676 5675 5669 5671 5669 5661 5648 5643 5638 5639 5640 5636 5636 5638 5643 5643 5635 5630 5628 5629 5629 5627 5623 5622 5619 5619 5616 5613 5615 5605 5605 5603 5602 5600 5598 5596 5599 5604 5603 5601 5597 5597
5680 5666 5676 5684 5686 5681 5681 5662 5655 5663 5672 5669 5652 5644 5635 5632 5631 5628 5632 5631 5635 5633 5631 5630 5627 5624 5621 5619 5615 5614 5612 5611 5611 5611 5609 5604 5600 5601 5600 5596 5599 5599 5598 5600 5599 5597 5597 5593 5593
5664 5663 5652 5674 5680 5683 5675 5652 5666 5657 5665 5663 5653 5639 5630 5620 5622 5621 5622 5621 5621 5620 5623 5621 5619 5614 5610 5608 5608 5605 5602 5607 5605 5607 5599 5599 5601 5597 5596 5596 5599 5597 5598 5597 5597 5594 5592 5590 5588
5657 5638 5649 5663 5683 5674 5665 5654 5670 5673 5675 5656 5640 5629 5623 5614 5609 5612 5614 5616 5618 5617 5614 5612 5613 5610 5607 5604 5598 5600 5600 5600 5596 5596 5596 5598 5596 5597 5597 5596 5596 5595 5596 5597 5596 5592 5590 5588 5585
5646 5651 5660 5661 5671 5668 5666 5660 5663 5672 5674 5655 5637 5631 5632 5624 5607 5604 5604 5606 5611 5611 5611 5610 5607 5604 5598 5595 5589 5591 5589 5591 5593 5594 5598 5603 5599 5599 5597 5597 5598 5595 5595 5593 5591 5589 5587 5586 5580
5666 5660 5655 5668 5682 5670 5670 5663 5661 5672 5666 5650 5635 5633 5628 5626 5613 5603 5599 5601 5605 5601 5609 5608 5603 5600 5593 5590 5584 5587 5591 5593 5595 5599 5600 5601 5600 5598 5598 5597 5595 5595 5593 5591 5588 5585 5583 5578 5575
5670 5660 5661 5678 5689 5677 5676 5675 5680 5675 5670 5662 5650 5639 5633 5625 5616 5606 5604 5603 5601 5607 5604 5601 5599 5597 5595 5596 5595 5596 5599 5601 5597 5599 5600 5601 5597 5599 5598 5598 5596 5596 5593 5588 5584 5583 5577 5572 5569
5672 5663 5662 5664 5682 5685 5680 5664 5675 5685 5670 5664 5665 5657 5646 5639 5629 5622 5617 5612 5611 5611 5611 5611 5611 5606 5604 5606 5599 5600 5600 5602 5601 5602 5600 5602 5601 5600 5600 5599 5598 5598 5595 5588 5585 5580 5573 5566 5562
5660 5677 5675 5672 5663 5639 5675 5632 5668 5675 5669 5666 5668 5663 5656 5649 5640 5633 5632 5625 5623 5621 5618 5616 5613 5610 5613 5610 5606 5604 5608 5607 5604 5601 5602 5602 5603 5602 5600 5600 5598 5598 5594 5588 5584 5578 5569 5563 5556
5669 5679 5673 5672 5655 5652 5657 5642 5658 5684 5668 5671 5675 5670 5668 5665 5659 5650 5642 5636 5633 5627 5624 5624 5621 5620 5619 5617 5616 5613 5611 5611 5609 5605 5603 5602 5600 5601 5599 5598 5597 5593 5588 5585 5580 5573 5565 5558 5551
5687 5673 5666 5666 5650 5624 5653 5648 5646 5661 5681 5683 5685 5677 5676 5674 5668 5662 5657 5647 5640 5634 5631 5629 5627 5627 5626 5624 5622 5618 5617 5614 5611 5606 5604 5601 5599 5596 5596 5595 5594 5588 5585 5580 5577 5569 5561 5551 5544
5673 5654 5615 5608 5610 5611 5643 5641 5659 5688 5693 5697 5693 5685 5684 5684 5676 5667 5659 5656 5652 5646 5641 5640 5638 5637 5634 5630 5630 5626 5622 5622 5616 5610 5606 5600 5597 5596 5594 5592 5589 5584 5581 5576 5570 5561 5555 5546 5537
5659 5652 5611 5605 5591 5606 5634 5632 5660 5696 5704 5701 5698 5697 5691 5683 5680 5675 5670 5667 5661 5657 5651 5646 5642 5638 5638 5634 5631 5629 5625 5623 5620 5616 5609 5603 5600 5597 5594 5591 5586 5580 5574 5568 5559 5555 5544 5541 5530
5660 5643 5661 5627 5622 5609 5623 5651 5675 5694 5688 5699 5702 5702 5689 5686 5684 5681 5678 5674 5670 5666 5662 5656 5650 5645 5644 5639 5634 5633 5631 5623 5621 5618 5611 5602 5600 5596 5591 5586 5578 5570 5564 5556 5550 5536 5524 5527 5519
5665 5671 5634 5628 5601 5592 5637 5634 5647 5667 5677 5689 5692 5690 5694 5688 5683 5680 5681 5679 5677 5674 5672 5665 5658 5654 5651 5647 5641 5633 5629 5626 5619 5616 5610 5604 5599 5594 5588 5579 5570 5559 5549 5541 5525 5523 5517 5513 5506
5653 5645 5649 5646 5626 5604 5601 5623 5665 5668 5679 5687 5689 5690 5691 5695 5699 5685 5681 5682 5679 5678 5673 5670 5661 5655 5648 5643 5643 5638 5633 5625 5619 5614 5605 5600 5594 5587 5579 5569 5561 5554 5546 5538 5527 5520 5515 5508 5500
5671 5656 5650 5613 5626 5627 5615 5620 5671 5679 5680 5684 5684 5689 5689 5690 5690 5694 5695 5680 5676 5675 5674 5671 5664 5656 5651 5645 5641 5640 5636 5623 5616 5612 5602 5595 5588 5579 5573 5565 5557 5550 5541 5530 5522 5516 5509 5500 5493